CAPE
0 0 0 0 0 0 0 0 0 0 0 0 0 0 0 0 0 0 0 0 0 0 0 0 2 4 8 11 12 15 19 19 17 80 201 303 337 41 170 262 357 330 566 450 225 291 516 448 317
0 0 0 0 0 0 0 0 0 0 0 0 0 0 0 0 0 0 0 0 0 0 0 0 0 0 2 3 3 8 11 15 19 16 17 53 135 420 415 204 347 414 462 450 355 254 468 397 644
0 0 0 0 0 0 0 0 0 0 0 0 0 0 0 0 0 0 0 0 0 0 0 0 0 0 0 1 1 2 3 6 8 14 11 11 7 92 132 631 369 706 719 523 723 496 560 578 589
0 0 0 0 0 0 0 0 0 0 0 0 0 0 0 0 0 0 0 0 0 0 0 0 0 0 0 0 0 0 0 1 2 3 3 12 13 3 65 211 625 441 377 253 832 776 584 471 554
0 0 0 0 0 0 0 0 0 0 0 0 0 0 0 0 0 0 0 0 0 0 0 0 0 0 0 0 0 0 0 0 0 0 0 4 6 12 7 70 226 571 317 326 581 564 610 484 452
0 0 0 0 0 0 0 0 0 0 0 0 0 0 0 0 0 0 0 0 0 0 0 0 0 0 0 0 0 0 0 0 0 0 0 0 0 1 6 10 6 85 370 290 331 556 521 390 347
0 0 0 0 0 0 0 0 0 0 0 0 0 0 0 0 0 0 0 0 0 0 0 0 0 0 0 0 0 0 0 0 0 0 0 0 0 0 0 0 6 5 108 329 224 340 431 456 321
0 0 0 0 0 0 0 0 0 0 0 0 0 0 0 0 0 0 0 0 0 0 0 0 0 0 0 0 0 0 0 0 0 0 0 0 0 0 0 0 0 2 4 164 250 403 423 377 265
0 0 0 0 0 0 0 0 0 0 0 0 0 0 0 0 0 0 0 0 0 0 0 0 0 0 0 0 0 0 0 0 0 0 0 0 0 0 0 0 0 4 0 1 304 480 380 194 60
0 0 0 0 0 0 0 0 0 0 0 0 0 0 0 0 0 0 0 0 0 0 0 0 0 0 0 0 0 0 0 0 0 0 0 0 0 0 0 0 0 0 0 0 1 384 330 100 9
0 0 0 0 0 0 0 0 0 0 0 0 0 0 0 0 0 0 0 0 0 0 0 0 0 0 0 0 0 0 0 0 0 0 0 0 0 0 0 0 0 0 0 0 0 8 294 55 6
0 0 0 0 0 0 0 0 0 0 0 0 0 0 0 0 0 0 0 0 0 0 0 0 0 0 0 0 0 0 0 0 0 0 0 0 0 0 0 0 0 0 0 0 0 1 11 95 19
0 0 0 0 0 0 0 0 0 0 0 0 0 0 0 0 0 0 0 0 0 0 0 0 0 0 0 0 0 0 0 0 0 0 0 0 0 0 0 0 0 0 0 0 0 0 0 32 3
0 0 0 0 0 0 0 0 0 0 0 0 0 0 0 0 0 0 0 0 0 0 0 0 0 0 0 0 0 0 0 0 0 0 0 0 0 0 0 0 0 0 0 0 0 0 0 1 43
0 0 0 0 0 0 0 0 0 0 0 0 0 0 0 0 0 0 0 0 0 0 0 0 0 0 0 0 0 0 0 0 0 0 0 0 0 0 0 0 0 0 0 0 0 0 0 4 7
0 0 0 0 0 0 0 0 0 0 0 0 0 0 0 0 0 0 0 0 0 0 0 0 0 0 0 0 0 0 0 0 0 0 0 0 0 0 0 0 0 0 0 0 0 0 0 0 2
0 0 0 0 0 0 0 0 0 0 0 0 0 0 0 0 0 0 0 0 0 0 0 0 0 0 0 0 0 0 0 0 0 0 0 0 0 0 0 0 0 0 0 0 0 0 0 0 0
0 0 0 0 0 0 0 0 0 0 0 0 0 0 0 0 0 0 0 0 0 0 0 0 0 0 0 0 0 0 0 0 0 0 0 0 0 0 0 0 0 0 0 0 0 0 0 0 0
0 0 0 0 0 0 0 0 0 0 0 0 0 0 0 0 0 0 0 0 0 0 0 0 0 0 0 0 0 0 0 0 0 0 0 0 0 0 0 0 0 0 0 0 0 0 7 2 0
0 0 0 0 0 0 0 0 0 0 0 0 0 0 0 0 0 0 0 0 0 0 0 0 0 0 0 0 0 0 0 0 0 0 0 0 0 0 0 0 0 0 0 0 0 0 0 0 0
0 0 0 0 0 0 0 0 0 0 0 0 0 0 0 0 0 0 0 0 0 0 0 0 0 0 0 0 0 0 0 0 0 0 0 0 0 0 0 0 0 0 0 0 0 0 0 1 0
0 0 0 0 0 0 0 0 0 0 0 0 0 0 0 0 0 0 0 0 0 0 0 0 0 0 0 0 0 0 0 0 0 0 0 0 0 0 0 0 0 0 0 0 0 0 0 1 0
0 0 0 0 0 0 0 0 0 0 0 0 0 0 0 0 0 0 0 0 0 0 0 0 0 0 0 0 0 0 0 0 0 0 0 0 0 0 0 0 0 0 0 0 0 0 0 0 0
0 0 0 0 0 0 0 0 0 0 0 0 0 0 0 0 0 0 0 0 0 0 0 0 0 0 0 0 0 0 0 0 0 0 0 0 0 0 0 0 0 0 0 0 0 0 0 2 2
0 0 0 0 0 0 0 0 0 0 0 0 0 0 0 0 0 0 0 0 0 0 0 0 0 0 0 0 0 0 0 0 0 0 0 0 0 0 0 0 0 0 0 0 0 0 0 0 5
0 0 0 0 0 0 0 0 0 0 0 0 0 0 0 0 0 0 0 0 0 0 0 0 0 0 0 0 0 0 0 0 0 0 0 0 0 0 0 0 0 0 1 1 0 0 0 0 3
0 0 0 0 0 0 0 0 0 0 0 0 0 0 0 0 0 0 0 0 0 0 0 0 0 0 0 0 0 0 0 0 0 0 0 0 0 0 0 1 1 1 2 4 5 5 2 1 1
0 0 0 0 0 0 0 0 0 0 0 0 0 0 0 0 0 0 0 0 0 0 0 0 0 0 0 0 0 0 0 0 0 0 0 0 1 4 4 4 3 2 4 7 9 7 5 4 4
0 0 0 0 0 0 0 0 0 0 0 0 0 0 0 0 0 0 0 0 0 0 0 0 0 0 0 0 0 0 0 0 0 0 0 0 0 4 3 6 3 3 1 1 7 9 13 11 7
0 0 0 0 0 0 0 0 0 0 0 0 0 0 0 0 0 0 0 0 0 0 0 0 0 0 0 0 0 0 0 0 0 0 0 0 0 1 2 3 4 5 4 3 5 9 11 15 11
CIN
-0 -0 -0 -0 -0 -0 -0 -0 -0 -0 -0 -0 -0 -0 -0 -0 -0 -0 -0 -0 -0 -0 -0 -0 -0 -0 -0 -0 -0 -0 -0 -0 -0 -65 -1 -2 -2 -29 -3 -25 -11 -2 -1 -0 -34 -4 -1 -0 -0
-0 -0 -0 -0 -0 -0 -0 -0 -0 -0 -0 -0 -0 -0 -0 -0 -0 -0 -0 -0 -0 -0 -0 -0 -0 -0 -0 -0 -0 -0 -0 -0 -0 -0 -88 -55 -19 -0 -5 -1 -5 -1 -0 -2 -6 -4 -9 -5 -0
-0 -0 -0 -0 -0 -0 -0 -0 -0 -0 -0 -0 -0 -0 -0 -0 -0 -0 -0 -0 -0 -0 -0 -0 -0 -0 -0 -0 -0 -0 -0 -0 -0 -0 -0 -0 -14 -38 -11 -0 -4 -2 -2 -2 -2 -4 -3 -1 -1
-0 -0 -0 -0 -0 -0 -0 -0 -0 -0 -0 -0 -0 -0 -0 -0 -0 -0 -0 -0 -0 -0 -0 -0 -0 -0 -0 -0 -0 -0 -0 -0 -0 -0 -0 -0 -0 -3 -62 -18 -0 -5 -5 -7 -1 -1 -2 -1 -1
-0 -0 -0 -0 -0 -0 -0 -0 -0 -0 -0 -0 -0 -0 -0 -0 -0 -0 -0 -0 -0 -0 -0 -0 -0 -0 -0 -0 -0 -0 -0 -0 -0 -0 -0 -0 -0 -0 -0 -53 -23 -1 -33 -7 -2 -2 -4 -8 -16
-0 -0 -0 -0 -0 -0 -0 -0 -0 -0 -0 -0 -0 -0 -0 -0 -0 -0 -0 -0 -0 -0 -0 -0 -0 -0 -0 -0 -0 -0 -0 -0 -0 -0 -0 -0 -0 -0 -0 -0 -20 -76 -6 -20 -5 -2 -4 -29 -6
-0 -0 -0 -0 -0 -0 -0 -0 -0 -0 -0 -0 -0 -0 -0 -0 -0 -0 -0 -0 -0 -0 -0 -0 -0 -0 -0 -0 -0 -0 -0 -0 -0 -0 -0 -0 -0 -0 -0 -0 -0 -0 -62 -9 -12 -17 -10 -10 -17
-0 -0 -0 -0 -0 -0 -0 -0 -0 -0 -0 -0 -0 -0 -0 -0 -0 -0 -0 -0 -0 -0 -0 -0 -0 -0 -0 -0 -0 -0 -0 -0 -0 -0 -0 -0 -0 -0 -0 -0 -0 -0 -0 -53 -26 -12 -16 -13 -9
-0 -0 -0 -0 -0 -0 -0 -0 -0 -0 -0 -0 -0 -0 -0 -0 -0 -0 -0 -0 -0 -0 -0 -0 -0 -0 -0 -0 -0 -0 -0 -0 -0 -0 -0 -0 -0 -0 -0 -0 -0 -0 -0 -0 -33 -7 -18 -21 -45
-0 -0 -0 -0 -0 -0 -0 -0 -0 -0 -0 -0 -0 -0 -0 -0 -0 -0 -0 -0 -0 -0 -0 -0 -0 -0 -0 -0 -0 -0 -0 -0 -0 -0 -0 -0 -0 -0 -0 -0 -0 -0 -0 -0 -72 -39 -39 -109 -166
-0 -0 -0 -0 -0 -0 -0 -0 -0 -0 -0 -0 -0 -0 -0 -0 -0 -0 -0 -0 -0 -0 -0 -0 -0 -0 -0 -0 -0 -0 -0 -0 -0 -0 -0 -0 -0 -0 -0 -0 -0 -0 -0 -0 -0 -304 -87 -123 -217
-0 -0 -0 -0 -0 -0 -0 -0 -0 -0 -0 -0 -0 -0 -0 -0 -0 -0 -0 -0 -0 -0 -0 -0 -0 -0 -0 -0 -0 -0 -0 -0 -0 -0 -0 -0 -0 -0 -0 -0 -0 -0 -0 -0 -0 -0 -17 -142 -167
-0 -0 -0 -0 -0 -0 -0 -0 -0 -0 -0 -0 -0 -0 -0 -0 -0 -0 -0 -0 -0 -0 -0 -0 -0 -0 -0 -0 -0 -0 -0 -0 -0 -0 -0 -0 -0 -0 -0 -0 -0 -0 -0 -0 -0 -0 -0 -107 -130
-0 -0 -0 -0 -0 -0 -0 -0 -0 -0 -0 -0 -0 -0 -0 -0 -0 -0 -0 -0 -0 -0 -0 -0 -0 -0 -0 -0 -0 -0 -0 -0 -0 -0 -0 -0 -0 -0 -0 -0 -0 -0 -0 -0 -0 -0 -0 -0 -137
-0 -0 -0 -0 -0 -0 -0 -0 -0 -0 -0 -0 -0 -0 -0 -0 -0 -0 -0 -0 -0 -0 -0 -0 -0 -0 -0 -0 -0 -0 -0 -0 -0 -0 -0 -0 -0 -0 -0 -0 -0 -0 -0 -0 -0 -0 -0 -0 -8
-0 -0 -0 -0 -0 -0 -0 -0 -0 -0 -0 -0 -0 -0 -0 -0 -0 -0 -0 -0 -0 -0 -0 -0 -0 -0 -0 -0 -0 -0 -0 -0 -0 -0 -0 -0 -0 -0 -0 -0 -0 -0 -0 -0 -0 -0 -0 -0 -0
-0 -0 -0 -0 -0 -0 -0 -0 -0 -0 -0 -0 -0 -0 -0 -0 -0 -0 -0 -0 -0 -0 -0 -0 -0 -0 -0 -0 -0 -0 -0 -0 -0 -0 -0 -0 -0 -0 -0 -0 -0 -0 -0 -0 -0 -0 -0 -0 -0
-0 -0 -0 -0 -0 -0 -0 -0 -0 -0 -0 -0 -0 -0 -0 -0 -0 -0 -0 -0 -0 -0 -0 -0 -0 -0 -0 -0 -0 -0 -0 -0 -0 -0 -0 -0 -0 -0 -0 -0 -0 -0 -0 -0 -0 -0 -0 -0 -0
-0 -0 -0 -0 -0 -0 -0 -0 -0 -0 -0 -0 -0 -0 -0 -0 -0 -0 -0 -0 -0 -0 -0 -0 -0 -0 -0 -0 -0 -0 -0 -0 -0 -0 -0 -0 -0 -0 -0 -0 -0 -0 -0 -0 -0 -0 -0 -0 -0
-0 -0 -0 -0 -0 -0 -0 -0 -0 -0 -0 -0 -0 -0 -0 -0 -0 -0 -0 -0 -0 -0 -0 -0 -0 -0 -0 -0 -0 -0 -0 -0 -0 -0 -0 -0 -0 -0 -0 -0 -0 -0 -0 -0 -0 -0 -0 -0 -0
-0 -0 -0 -0 -0 -0 -0 -0 -0 -0 -0 -0 -0 -0 -0 -0 -0 -0 -0 -0 -0 -0 -0 -0 -0 -0 -0 -0 -0 -0 -0 -0 -0 -0 -0 -0 -0 -0 -0 -0 -0 -0 -0 -0 -0 -0 -0 -0 -0
-0 -0 -0 -0 -0 -0 -0 -0 -0 -0 -0 -0 -0 -0 -0 -0 -0 -0 -0 -0 -0 -0 -0 -0 -0 -0 -0 -0 -0 -0 -0 -0 -0 -0 -0 -0 -0 -0 -0 -0 -0 -0 -0 -0 -0 -0 -0 -1 -0
-0 -0 -0 -0 -0 -0 -0 -0 -0 -0 -0 -0 -0 -0 -0 -0 -0 -0 -0 -0 -0 -0 -0 -0 -0 -0 -0 -0 -0 -0 -0 -0 -0 -0 -0 -0 -0 -0 -0 -0 -0 -0 -0 -0 -0 -0 -0 -0 -0
-0 -0 -0 -0 -0 -0 -0 -0 -0 -0 -0 -0 -0 -0 -0 -0 -0 -0 -0 -0 -0 -0 -0 -0 -0 -0 -0 -0 -0 -0 -0 -0 -0 -0 -0 -0 -0 -0 -0 -0 -0 -0 -0 -0 -0 -0 -0 -1 -1
-0 -0 -0 -0 -0 -0 -0 -0 -0 -0 -0 -0 -0 -0 -0 -0 -0 -0 -0 -0 -0 -0 -0 -0 -0 -0 -0 -0 -0 -0 -0 -0 -0 -0 -0 -0 -0 -0 -0 -0 -0 -0 -0 -0 -0 -0 -0 -0 -0
-0 -0 -0 -0 -0 -0 -0 -0 -0 -0 -0 -0 -0 -0 -0 -0 -0 -0 -0 -0 -0 -0 -0 -0 -0 -0 -0 -0 -0 -0 -0 -0 -0 -0 -0 -0 -0 -0 -0 -0 -0 -0 -0 -0 -0 -0 -0 -0 -0
-0 -0 -0 -0 -0 -0 -0 -0 -0 -0 -0 -0 -0 -0 -0 -0 -0 -0 -0 -0 -0 -0 -0 -0 -0 -0 -0 -0 -0 -0 -0 -0 -0 -0 -0 -0 -0 -0 -1 -1 -0 -0 -0 -0 -0 -0 -0 -1 -1
-0 -0 -0 -0 -0 -0 -0 -0 -0 -0 -0 -0 -0 -0 -0 -0 -0 -0 -0 -0 -0 -0 -0 -0 -0 -0 -0 -0 -0 -0 -0 -0 -0 -0 -0 -0 -0 -0 -0 -0 -0 -0 -0 -0 -0 -0 -0 -0 -0
-0 -0 -0 -0 -0 -0 -0 -0 -0 -0 -0 -0 -0 -0 -0 -0 -0 -0 -0 -0 -0 -0 -0 -0 -0 -0 -0 -0 -0 -0 -0 -0 -0 -0 -0 -0 -0 -0 -0 -0 -0 -0 -0 -0 -0 -0 -0 -0 -0
-0 -0 -0 -0 -0 -0 -0 -0 -0 -0 -0 -0 -0 -0 -0 -0 -0 -0 -0 -0 -0 -0 -0 -0 -0 -0 -0 -0 -0 -0 -0 -0 -0 -0 -0 -0 -0 -0 -0 -0 -0 -0 -0 -0 -0 -0 -0 -0 -0
Wind_Speed
11 9 2 4 4 4 4 6 4 5 4 3 4 9 10 7 4 3 3 5 7 6 5 7 15 16 17 19 20 20 20 19 19 18 17 15 9 7 7 7 6 7 8 7 6 9 12 12 13
5 6 3 2 5 3 5 6 7 2 6 9 7 5 7 4 4 12 6 3 7 8 5 6 14 16 17 19 20 19 19 19 18 18 17 15 14 14 10 7 6 7 7 7 7 10 10 12 11
5 4 4 5 4 6 6 1 7 5 6 3 6 9 5 4 4 4 4 5 9 7 6 7 14 15 15 18 17 17 18 18 18 18 17 16 13 11 10 13 7 8 7 5 7 8 11 11 11
2 4 5 4 6 7 5 5 9 10 2 6 6 10 5 5 3 6 7 6 8 7 7 9 14 15 15 16 16 16 17 17 16 17 17 16 17 14 10 11 10 7 7 4 8 9 10 10 10
2 3 1 3 6 2 3 6 5 5 6 4 4 7 4 3 7 7 7 8 6 7 8 8 14 15 14 16 17 17 17 17 17 17 17 16 15 18 15 11 12 9 5 4 6 11 9 9 9
2 3 2 5 4 4 3 7 9 5 4 6 7 6 4 8 7 6 9 8 7 7 6 7 12 14 14 16 17 17 17 18 17 17 18 17 17 15 18 17 13 10 9 4 5 9 9 8 8
5 4 5 4 7 3 6 5 7 7 7 4 9 6 5 5 7 7 8 8 8 7 7 7 7 12 15 16 17 17 18 18 17 18 19 18 17 18 16 15 19 14 7 4 5 8 10 9 8
3 4 3 5 7 5 6 2 4 5 1 4 4 8 7 7 9 7 9 8 8 7 7 7 6 8 8 7 17 17 17 18 18 19 20 19 17 19 19 18 17 18 16 8 5 8 10 10 9
3 2 3 5 5 5 5 5 3 2 7 5 4 4 8 16 11 7 7 6 6 7 6 5 6 6 8 7 11 14 16 18 17 17 19 14 9 10 13 15 18 16 16 19 7 8 11 11 10
4 4 5 2 1 5 5 5 6 5 5 4 9 10 11 11 8 9 7 6 5 5 5 5 6 6 6 7 7 7 9 7 8 9 10 8 8 9 10 12 18 18 18 15 17 8 10 11 6
3 4 4 3 4 2 7 3 2 11 4 8 13 15 11 9 8 9 7 8 7 5 5 5 5 6 5 5 3 3 3 4 5 8 8 7 7 7 7 6 7 8 14 8 10 9 3 4 5
3 5 4 2 5 3 4 6 4 4 2 7 19 17 9 11 9 9 8 6 7 7 5 5 5 6 6 4 4 4 4 4 4 5 8 6 5 7 7 6 8 7 7 9 9 6 10 5 5
2 4 6 3 6 5 3 2 3 3 5 16 17 15 12 10 9 8 7 7 7 6 5 4 4 4 5 5 4 4 4 4 4 4 5 5 5 5 5 6 6 7 7 7 8 8 8 7 6
2 5 5 4 4 3 1 2 1 5 7 14 15 11 9 11 10 8 7 6 6 6 5 3 4 5 5 4 5 4 4 4 4 4 4 6 4 4 4 5 6 7 8 8 7 8 9 9 6
5 3 2 3 4 1 1 5 9 6 11 13 11 10 9 9 10 9 7 7 7 5 5 3 5 5 5 5 5 4 4 4 4 4 6 6 6 5 6 5 5 6 7 9 7 7 7 8 10
1 3 1 1 6 0 4 8 4 10 13 12 11 9 9 8 10 8 8 8 7 6 5 4 4 5 5 4 3 3 4 4 4 4 4 6 7 6 5 5 5 6 6 7 7 7 7 7 8
2 3 5 2 7 3 4 4 3 7 8 9 9 8 10 8 8 9 9 9 7 6 5 4 5 5 4 4 3 4 5 4 3 4 4 5 6 6 5 4 4 5 5 5 6 6 6 8 8
3 3 4 3 2 3 4 8 3 6 7 9 9 9 9 10 8 11 10 8 7 6 5 5 4 5 5 4 4 4 4 4 4 4 3 5 4 5 4 3 4 4 3 4 5 8 6 6 6
4 3 2 2 2 2 8 10 9 11 9 10 9 10 10 11 9 12 11 9 8 6 6 5 5 3 4 3 3 2 3 3 3 4 6 6 5 5 4 3 4 4 5 5 6 6 8 6 3
2 1 3 2 2 1 4 11 11 10 13 16 15 11 13 9 10 11 9 8 8 7 7 5 4 4 3 2 1 1 2 2 3 3 5 6 7 7 7 5 5 4 4 6 5 6 7 5 3
2 1 2 1 6 4 5 10 8 8 10 10 9 10 10 14 14 13 9 9 8 7 6 5 4 4 2 3 2 2 2 2 3 3 5 5 7 7 8 7 6 6 3 4 5 5 6 6 6
2 3 3 3 3 4 3 9 7 4 3 9 11 11 10 10 10 11 9 6 7 6 6 5 4 2 1 2 2 2 1 3 2 3 4 6 7 8 7 8 7 8 6 6 5 7 6 6 8
2 1 2 1 2 5 3 1 10 2 4 4 3 10 8 9 10 10 10 8 4 6 5 4 3 1 1 1 1 2 3 2 4 3 6 6 7 8 8 8 7 7 6 7 8 8 8 8 9
1 1 1 2 2 2 6 5 7 3 4 2 4 5 9 8 9 9 7 7 5 3 4 4 4 3 1 1 2 3 4 4 4 6 6 6 5 5 7 8 8 8 8 9 9 10 11 10 11
5 3 3 5 2 7 4 1 11 6 4 5 12 9 8 7 7 7 8 6 5 6 6 4 5 4 3 3 3 3 5 5 7 7 6 8 6 5 7 7 8 8 10 11 11 12 13 12 12
2 5 2 4 2 4 4 7 6 3 5 5 6 8 7 6 5 5 5 5 7 7 6 6 5 5 4 4 5 4 5 4 5 7 7 7 7 7 9 9 10 11 12 12 13 12 12 13 13
4 1 2 1 1 3 4 7 3 3 5 6 7 6 4 3 4 6 4 5 6 6 7 7 6 5 5 5 4 4 4 6 7 9 9 8 9 9 11 12 12 13 13 14 14 13 15 15 14
5 2 4 3 1 4 6 5 3 2 3 4 5 7 6 3 4 4 4 5 4 5 6 6 5 6 5 4 3 4 5 6 8 9 10 10 10 12 13 15 14 15 15 16 17 15 18 19 15
2 2 3 1 3 4 2 6 4 3 9 10 5 6 6 6 6 6 6 6 6 5 6 5 5 5 4 3 4 4 6 6 8 9 10 10 11 12 14 14 17 16 17 16 17 18 19 21 21
3 5 5 3 5 0 2 9 2 3 4 6 2 3 3 4 7 6 6 7 7 7 6 6 4 4 4 4 3 5 6 6 7 9 10 11 12 13 14 15 17 17 18 18 20 20 19 22 24
Wind_Direction
313 301 252 47 91 72 230 242 130 128 94 334 334 90 112 35 76 154 181 120 114 98 38 325 24 27 30 32 36 30 30 32 32 35 34 43 35 40 34 28 38 45 71 51 92 103 104 103 108
301 309 48 90 105 142 255 218 176 134 148 135 93 107 45 81 44 129 120 85 96 91 54 347 30 27 30 34 33 31 29 27 28 31 32 29 35 33 27 13 26 36 61 64 89 115 120 113 108
307 212 98 134 162 184 221 261 130 110 139 110 98 47 76 98 58 107 115 52 86 73 58 26 37 36 35 35 35 33 32 27 28 27 25 23 24 41 31 19 31 35 35 72 100 120 121 122 118
242 8 6 127 212 245 217 160 134 131 142 66 112 72 69 352 105 122 108 76 79 66 48 30 39 36 37 37 35 34 34 30 29 27 24 19 16 19 34 40 23 43 29 54 121 124 128 128 127
34 78 166 204 218 218 79 144 138 126 125 114 134 142 92 60 100 113 118 93 80 82 48 29 39 36 36 37 31 31 32 31 28 27 24 21 21 13 15 24 52 36 47 54 135 135 140 133 133
13 106 103 217 228 121 125 168 143 127 115 134 82 107 132 138 117 128 111 101 83 75 57 42 35 34 34 35 32 29 29 29 25 26 25 24 14 21 15 13 21 47 31 81 141 146 151 148 149
140 111 209 214 228 178 183 156 146 135 121 103 139 88 128 140 142 134 118 109 94 73 57 38 29 27 24 31 33 28 26 24 23 23 20 21 15 14 13 14 1 6 21 29 142 157 162 162 159
117 113 214 221 232 226 172 86 71 79 200 108 114 166 181 182 144 126 113 107 95 79 58 41 23 21 14 29 27 24 28 22 20 21 16 14 16 11 11 1 1 348 358 339 171 166 169 169 169
22 69 205 231 231 157 180 135 48 73 104 61 16 101 145 144 146 125 111 95 89 75 63 44 25 31 8 36 21 21 18 18 23 16 15 12 4 7 1 354 354 355 354 355 299 186 177 172 169
123 151 219 347 85 182 164 118 134 122 129 72 85 98 121 141 145 137 128 117 102 82 69 48 36 36 28 32 18 5 10 6 17 8 8 9 11 359 4 354 359 0 356 352 2 281 200 167 166
192 200 147 357 348 42 139 103 110 126 228 179 165 153 153 140 129 124 130 133 129 112 70 52 35 39 28 25 28 7 360 9 5 6 359 2 4 2 4 359 355 356 358 352 345 353 242 215 191
195 46 88 27 358 18 105 149 167 184 239 177 150 151 143 145 142 136 130 127 119 104 96 65 50 35 24 23 14 12 14 22 9 1 356 3 359 4 4 0 354 358 356 349 346 344 321 193 227
134 127 66 95 57 54 12 125 220 125 56 121 134 146 148 145 136 131 134 130 123 110 109 90 84 51 36 31 14 11 3 12 3 359 353 356 0 1 353 356 350 353 354 352 345 340 330 297 188
70 84 121 111 71 38 50 152 217 158 125 124 139 147 151 146 146 138 142 143 129 125 113 87 81 60 43 36 21 5 359 0 3 356 354 358 356 355 3 345 356 359 354 354 342 339 327 320 254
121 68 20 161 158 119 332 259 224 167 148 141 148 155 151 154 148 156 154 145 137 133 127 108 108 67 47 28 12 357 349 360 0 351 354 0 10 12 3 356 353 351 349 343 341 339 329 313 311
114 96 27 127 139 231 116 258 254 157 153 162 162 166 162 157 158 147 143 139 140 137 133 107 83 72 55 26 360 346 345 356 1 9 9 354 357 6 10 354 355 346 344 337 340 337 334 322 319
309 220 201 206 190 124 191 275 359 148 158 169 178 172 169 163 161 156 146 146 148 142 128 100 83 67 42 14 4 0 11 27 7 1 351 349 358 355 358 346 337 337 335 338 335 336 330 329 322
189 236 294 184 226 157 209 255 253 187 178 192 188 183 178 179 178 163 148 145 145 145 128 112 89 56 35 25 1 10 14 357 350 345 336 343 330 326 325 313 312 325 327 324 328 322 318 311 311
148 146 229 156 350 261 236 257 227 218 205 203 204 191 188 183 171 160 154 149 155 153 129 118 100 54 48 16 7 356 345 325 330 319 312 315 309 314 324 309 344 359 354 330 321 321 324 331 2
46 50 300 113 183 159 291 266 254 209 215 201 195 196 187 176 150 158 154 159 168 156 135 117 102 71 49 39 346 319 315 314 309 321 330 355 344 335 325 338 327 336 330 323 319 322 319 307 296
75 134 357 265 313 233 327 275 238 231 202 191 207 189 177 175 160 166 167 172 164 155 148 135 110 79 40 37 346 336 318 330 345 340 329 330 327 321 314 313 313 312 310 296 295 292 289 291 297
227 8 18 3 46 240 100 287 298 245 217 201 192 191 176 160 165 166 167 163 168 171 139 124 110 112 95 26 349 353 325 323 327 311 306 305 295 293 295 296 295 297 297 290 276 277 267 269 275
140 45 30 84 41 37 291 263 267 108 272 260 238 184 162 149 152 163 171 168 165 151 146 140 136 186 222 279 291 308 304 280 296 288 284 280 282 282 285 284 289 285 288 286 282 274 261 257 261
140 127 157 53 95 335 240 204 275 196 220 195 166 166 149 146 141 136 156 142 147 140 137 148 163 216 251 265 256 288 285 290 292 290 282 276 272 278 274 275 274 276 275 274 276 274 266 254 251
44 63 333 349 12 227 316 89 249 289 288 218 183 163 140 134 134 140 144 165 163 170 185 184 178 227 246 251 275 271 280 274 279 284 283 287 286 273 266 267 267 268 266 264 262 264 264 261 254
176 147 205 251 232 286 32 237 262 274 320 79 121 134 129 138 142 166 178 178 176 182 183 191 193 229 243 247 267 272 269 280 277 274 279 277 274 281 286 275 267 263 261 259 258 259 261 260 257
266 82 246 272 74 45 254 289 298 4 34 63 91 114 145 172 199 210 209 191 182 178 192 194 199 231 249 248 257 278 279 271 277 281 275 276 285 290 288 284 278 272 264 253 251 254 256 254 253
141 189 41 340 281 282 294 285 317 293 204 171 168 183 199 205 201 219 214 201 197 188 191 184 190 220 243 253 249 259 272 286 288 287 284 283 290 290 285 284 279 275 267 259 253 253 252 252 250
20 346 23 122 184 201 284 279 215 264 205 201 203 192 192 195 202 219 227 218 191 181 182 197 205 227 262 264 274 294 291 287 287 285 283 283 288 284 282 279 277 271 268 261 255 249 247 248 250
177 184 161 131 283 83 138 277 274 317 358 160 198 228 236 201 212 210 211 194 184 189 193 209 213 216 237 260 277 285 289 291 292 290 288 288 284 282 278 275 275 272 268 262 256 252 247 246 244